SIN45D OMDB-WSSS

Flight info

Callsign SIN45D
Flight time 6h 37m
Altitude 39000
Route IVURO M677 LALDO B505 NADSO A777 VAXIM P307 PARAR N571 BIKEN/N0484F410 N571 GUNIP M630 NIREN Y511 TOPOR A464 ARAMA DCT TEBUN TEBUN1A
Aircraft A359/H-SDE2E3GHIJ3J4J5LM1ORWXY/LB1D1

Departure

Time 2026-04-26 11:33
Airport Dubai International Airport (OMDB)

Arrival

Time 2026-04-26 18:10
Airport Singapore Changi Airport (WSSS)
Time Latitude Longitude Altitude Speed Heading
2026-04-26 10:55 25.24875 55.36294 28 ft 0 kts 211°
2026-04-26 11:15 25.24895 55.36308 27 ft 4 kts 211°
2026-04-26 11:15 25.24918 55.36323 25 ft 4 kts 211°
2026-04-26 11:15 25.24941 55.36338 26 ft 4 kts 205°
2026-04-26 11:15 25.24962 55.36341 24 ft 4 kts 139°
2026-04-26 11:16 25.24978 55.36318 24 ft 4 kts 120°
2026-04-26 11:16 25.24984 55.36307 25 ft 1 kts 121°
2026-04-26 11:18 25.24978 55.36358 24 ft 18 kts 92°
2026-04-26 11:18 25.24978 55.36477 28 ft 15 kts 90°
2026-04-26 11:18 25.24964 55.36533 28 ft 0 kts 123°
2026-04-26 11:21 25.24958 55.36535 27 ft 1 kts 155°
2026-04-26 11:21 25.24948 55.36527 28 ft 3 kts 224°
2026-04-26 11:21 25.24958 55.36500 28 ft 9 kts 309°
2026-04-26 11:21 25.25006 55.36448 27 ft 9 kts 302°
2026-04-26 11:22 25.25044 55.36384 30 ft 11 kts 303°
2026-04-26 11:22 25.25087 55.36306 30 ft 13 kts 301°
2026-04-26 11:22 25.25136 55.36216 26 ft 14 kts 301°
2026-04-26 11:22 25.25190 55.36116 26 ft 16 kts 303°
2026-04-26 11:23 25.25251 55.36010 22 ft 17 kts 302°
2026-04-26 11:23 25.25304 55.35915 20 ft 14 kts 302°
2026-04-26 11:23 25.25357 55.35822 21 ft 15 kts 302°
2026-04-26 11:23 25.25414 55.35716 19 ft 17 kts 300°
2026-04-26 11:24 25.25475 55.35606 20 ft 17 kts 301°
2026-04-26 11:24 25.25537 55.35495 19 ft 17 kts 301°
2026-04-26 11:24 25.25596 55.35388 23 ft 16 kts 302°
2026-04-26 11:24 25.25653 55.35286 26 ft 15 kts 301°
2026-04-26 11:25 25.25709 55.35206 28 ft 9 kts 341°
2026-04-26 11:25 25.25799 55.35240 11 ft 17 kts 30°
2026-04-26 11:25 25.25906 55.35312 11 ft 18 kts 31°
2026-04-26 11:25 25.25987 55.35409 10 ft 18 kts 72°
2026-04-26 11:26 25.25976 55.35549 10 ft 20 kts 111°
2026-04-26 11:26 25.25883 55.35721 8 ft 32 kts 122°
2026-04-26 11:26 25.25765 55.35931 11 ft 32 kts 122°
2026-04-26 11:26 25.25650 55.36139 15 ft 31 kts 121°
2026-04-26 11:27 25.25539 55.36341 14 ft 32 kts 121°
2026-04-26 11:27 25.25424 55.36548 15 ft 32 kts 121°
2026-04-26 11:27 25.25307 55.36757 18 ft 31 kts 121°
2026-04-26 11:27 25.25196 55.36958 23 ft 30 kts 121°
2026-04-26 11:28 25.25091 55.37146 27 ft 28 kts 120°
2026-04-26 11:28 25.24979 55.37352 30 ft 31 kts 122°
2026-04-26 11:28 25.24867 55.37553 30 ft 32 kts 121°
2026-04-26 11:28 25.24752 55.37760 31 ft 31 kts 121°
2026-04-26 11:29 25.24672 55.37919 32 ft 13 kts 101°
2026-04-26 11:29 25.24690 55.37963 36 ft 10 kts 45°
2026-04-26 11:29 25.24782 55.38023 39 ft 12 kts
2026-04-26 11:29 25.24817 55.37999 39 ft 4 kts 301°
2026-04-26 11:30 25.24817 55.37998 39 ft 0 kts 301°
2026-04-26 11:32 25.24833 55.37970 39 ft 23 kts 302°
2026-04-26 11:32 25.25043 55.37595 38 ft 91 kts 302°
2026-04-26 11:32 25.25477 55.36817 28 ft 146 kts 301°
2026-04-26 11:33 25.26065 55.35785 470 ft 151 kts 303°
2026-04-26 11:33 25.26672 55.34783 971 ft 164 kts 305°
2026-04-26 11:33 25.27302 55.33660 1305 ft 180 kts 301°
2026-04-26 11:33 25.27974 55.32405 1509 ft 201 kts 302°
2026-04-26 11:34 25.28737 55.31021 1778 ft 218 kts 304°
2026-04-26 11:34 25.29816 55.29870 2384 ft 220 kts 331°
2026-04-26 11:34 25.31301 55.29466 3034 ft 223 kts 356°
2026-04-26 11:34 25.32863 55.29489 3620 ft 227 kts 359°
2026-04-26 11:35 25.34473 55.29552 4193 ft 234 kts 359°
2026-04-26 11:35 25.36107 55.29612 4794 ft 237 kts 359°
2026-04-26 11:35 25.37775 55.29663 5381 ft 239 kts 359°
2026-04-26 11:35 25.38873 55.29783 5811 ft 241 kts
2026-04-26 11:36 25.40854 55.31031 6430 ft 262 kts 43°
2026-04-26 11:36 25.42077 55.32627 6691 ft 281 kts 49°
2026-04-26 11:36 25.43297 55.34358 7139 ft 289 kts 49°
2026-04-26 11:36 25.44547 55.36119 7727 ft 293 kts 49°
2026-04-26 11:37 25.45824 55.37898 8337 ft 297 kts 48°
2026-04-26 11:37 25.47126 55.39691 8987 ft 300 kts 48°
2026-04-26 11:37 25.48446 55.41501 9652 ft 303 kts 48°
2026-04-26 11:37 25.49752 55.43325 10220 ft 309 kts 50°
2026-04-26 11:38 25.51100 55.45270 10520 ft 326 kts 50°
2026-04-26 11:38 25.52366 55.47439 10731 ft 346 kts 64°
2026-04-26 11:38 25.52884 55.50096 10956 ft 364 kts 90°
2026-04-26 11:38 25.52367 55.52879 11196 ft 378 kts 114°
2026-04-26 11:39 25.51000 55.55394 11491 ft 387 kts 126°
2026-04-26 11:39 25.49426 55.57858 11916 ft 393 kts 126°
2026-04-26 11:39 25.47876 55.60374 12379 ft 398 kts 125°
2026-04-26 11:39 25.46345 55.62947 12874 ft 401 kts 124°
2026-04-26 11:40 25.44846 55.65515 13397 ft 404 kts 124°
2026-04-26 11:40 25.43349 55.68160 13875 ft 407 kts 121°
2026-04-26 11:40 25.42264 55.71074 14319 ft 412 kts 106°
2026-04-26 11:40 25.41569 55.74156 14783 ft 415 kts 104°
2026-04-26 11:41 25.40919 55.77277 15244 ft 417 kts 103°
2026-04-26 11:42 25.36145 55.99758 18331 ft 440 kts 104°
2026-04-26 11:43 25.35431 56.03079 18677 ft 445 kts 104°
2026-04-26 11:43 25.34715 56.06406 19114 ft 446 kts 104°
2026-04-26 11:43 25.33995 56.09757 19556 ft 448 kts 105°
2026-04-26 11:43 25.33271 56.13120 19954 ft 451 kts 105°
2026-04-26 11:44 25.32841 56.15370 20254 ft 453 kts 101°
2026-04-26 11:44 25.32383 56.18833 20704 ft 456 kts 98°
2026-04-26 11:44 25.32057 56.22335 21107 ft 460 kts 96°
2026-04-26 11:44 25.31790 56.25881 21488 ft 464 kts 96°
2026-04-26 11:45 25.31538 56.29442 21914 ft 466 kts 96°
2026-04-26 11:45 25.31278 56.33017 22328 ft 469 kts 96°
2026-04-26 11:45 25.31003 56.36617 22694 ft 472 kts 97°
2026-04-26 11:45 25.30711 56.40255 23116 ft 475 kts 97°
2026-04-26 11:46 25.30494 56.43909 23484 ft 479 kts 94°
2026-04-26 11:46 25.30383 56.47609 23813 ft 482 kts 93°
2026-04-26 11:46 25.30315 56.51323 24162 ft 486 kts 92°
2026-04-26 11:46 25.30249 56.55070 24488 ft 488 kts 92°
2026-04-26 11:47 25.29941 56.58803 24863 ft 489 kts 101°
2026-04-26 11:47 25.29111 56.62457 25187 ft 491 kts 111°
2026-04-26 11:47 25.27963 56.65977 25550 ft 493 kts 113°
2026-04-26 11:47 25.26685 56.69500 25915 ft 496 kts 115°
2026-04-26 11:48 25.25343 56.73016 26279 ft 499 kts 115°
2026-04-26 11:48 25.23966 56.76561 26641 ft 502 kts 115°
2026-04-26 11:48 25.22584 56.80115 27002 ft 505 kts 115°
2026-04-26 11:48 25.21199 56.83698 27363 ft 508 kts 115°
2026-04-26 11:49 25.19815 56.87304 27723 ft 511 kts 115°
2026-04-26 11:49 25.18429 56.90931 28084 ft 515 kts 115°
2026-04-26 11:49 25.17034 56.94592 28435 ft 518 kts 115°
2026-04-26 11:49 25.15636 56.98262 28770 ft 521 kts 115°
2026-04-26 11:50 25.14229 57.01956 29157 ft 522 kts 115°
2026-04-26 11:50 25.12838 57.05604 29515 ft 524 kts 115°
2026-04-26 11:50 25.11420 57.09319 29801 ft 527 kts 115°
2026-04-26 11:50 25.09990 57.13057 30049 ft 530 kts 114°
2026-04-26 11:51 25.08552 57.16815 30274 ft 533 kts 114°
2026-04-26 11:51 25.07104 57.20597 30475 ft 536 kts 114°
2026-04-26 11:51 25.05644 57.24406 30679 ft 539 kts 114°
2026-04-26 11:51 25.04179 57.28223 30882 ft 542 kts 114°
2026-04-26 11:52 25.02703 57.32067 31125 ft 544 kts 114°
2026-04-26 11:52 25.01228 57.35903 31408 ft 545 kts 113°
2026-04-26 11:52 24.99747 57.39750 31675 ft 545 kts 113°
2026-04-26 11:52 24.98263 57.43603 32021 ft 544 kts 113°
2026-04-26 11:53 24.96779 57.47453 32331 ft 545 kts 112°
2026-04-26 11:53 24.95313 57.51253 32557 ft 546 kts 112°
2026-04-26 11:53 24.93823 57.55110 32813 ft 547 kts 112°
2026-04-26 11:54 24.90811 57.62898 33322 ft 549 kts 112°
2026-04-26 11:54 24.89334 57.66713 33573 ft 550 kts 112°
2026-04-26 11:54 24.87831 57.70590 33863 ft 550 kts 111°
2026-04-26 11:54 24.86328 57.74462 34086 ft 550 kts 111°
2026-04-26 11:55 24.84823 57.78338 34324 ft 550 kts 111°
2026-04-26 11:55 24.83313 57.82223 34556 ft 550 kts 111°
2026-04-26 11:55 24.81775 57.86080 34808 ft 549 kts 113°
2026-04-26 11:55 24.80143 57.89877 35066 ft 549 kts 114°
2026-04-26 11:56 24.78462 57.93652 35300 ft 549 kts 115°
2026-04-26 11:56 24.76769 57.97420 35558 ft 548 kts 115°
2026-04-26 11:56 24.75083 58.01188 35776 ft 548 kts 114°
2026-04-26 11:56 24.73411 58.04952 35970 ft 548 kts 114°
2026-04-26 11:57 24.71747 58.08725 36172 ft 548 kts 114°
2026-04-26 11:57 24.70090 58.12497 36378 ft 548 kts 114°
2026-04-26 11:57 24.68430 58.16281 36575 ft 548 kts 114°
2026-04-26 11:57 24.66771 58.20067 36754 ft 548 kts 114°
2026-04-26 11:58 24.65116 58.23840 36973 ft 548 kts 114°
2026-04-26 11:58 24.63464 58.27602 37175 ft 547 kts 114°
2026-04-26 11:58 24.61804 58.31378 37350 ft 548 kts 114°
2026-04-26 11:58 24.60143 58.35150 37504 ft 548 kts 114°
2026-04-26 11:59 24.58483 58.38918 37683 ft 548 kts 114°
2026-04-26 11:59 24.56844 58.42637 37835 ft 548 kts 114°
2026-04-26 11:59 24.55181 58.46404 38011 ft 548 kts 114°
2026-04-26 11:59 24.53519 58.50167 38157 ft 548 kts 114°
2026-04-26 12:00 24.51851 58.53938 38294 ft 548 kts 114°
2026-04-26 12:00 24.50186 58.57703 38424 ft 548 kts 114°
2026-04-26 12:00 24.48516 58.61473 38543 ft 548 kts 114°
2026-04-26 12:00 24.46849 58.65235 38686 ft 547 kts 114°
2026-04-26 12:01 24.45183 58.68991 38776 ft 548 kts 114°
2026-04-26 12:01 24.41836 58.76530 38781 ft 550 kts 114°
2026-04-26 12:02 24.38484 58.84084 38784 ft 549 kts 114°
2026-04-26 12:02 24.35135 58.91602 38782 ft 549 kts 114°
2026-04-26 12:03 24.31779 58.99126 38780 ft 549 kts 114°
2026-04-26 12:03 24.28420 59.06647 38775 ft 548 kts 114°
2026-04-26 12:04 24.25086 59.14100 38780 ft 547 kts 114°
2026-04-26 12:04 24.21740 59.21570 38780 ft 547 kts 114°
2026-04-26 12:05 24.18382 59.29057 38781 ft 547 kts 114°
2026-04-26 12:05 24.15023 59.36529 38779 ft 546 kts 114°
2026-04-26 12:06 24.11667 59.43985 38773 ft 546 kts 114°
2026-04-26 12:06 24.08310 59.51435 38774 ft 545 kts 114°
2026-04-26 12:07 24.04950 59.58887 38772 ft 545 kts 114°
2026-04-26 12:07 24.01600 59.66287 38774 ft 544 kts 114°
2026-04-26 12:08 23.98238 59.73704 38773 ft 544 kts 114°
2026-04-26 12:08 23.94876 59.81112 38776 ft 544 kts 114°
2026-04-26 12:09 23.91509 59.88522 38774 ft 544 kts 114°
2026-04-26 12:09 23.88146 59.95911 38774 ft 542 kts 114°
2026-04-26 12:10 23.84783 60.03289 38775 ft 542 kts 114°
2026-04-26 12:10 23.81436 60.10620 38777 ft 542 kts 114°
2026-04-26 12:11 23.78069 60.17985 38787 ft 542 kts 114°
2026-04-26 12:11 23.74700 60.25341 38782 ft 541 kts 114°
2026-04-26 12:12 23.71326 60.32696 38780 ft 541 kts 114°
2026-04-26 12:12 23.67956 60.40032 38780 ft 540 kts 114°
2026-04-26 12:13 23.64587 60.47355 38780 ft 540 kts 114°
2026-04-26 12:13 23.61212 60.54678 38779 ft 540 kts 114°
2026-04-26 12:14 23.57829 60.62009 38785 ft 540 kts 114°
2026-04-26 12:14 23.54472 60.69272 38781 ft 540 kts 114°
2026-04-26 12:15 23.51101 60.76553 38786 ft 538 kts 114°
2026-04-26 12:15 23.47736 60.83812 38785 ft 536 kts 114°
2026-04-26 12:16 23.44363 60.91076 38782 ft 536 kts 114°
2026-04-26 12:16 23.40993 60.98324 38782 ft 536 kts 114°
2026-04-26 12:17 23.38271 61.04171 38786 ft 536 kts 114°
2026-04-26 12:17 23.35224 61.10706 38779 ft 535 kts 114°
2026-04-26 12:18 23.31851 61.17929 38786 ft 534 kts 114°
2026-04-26 12:18 23.28583 61.25119 38782 ft 533 kts 112°
2026-04-26 12:19 23.25381 61.32395 38789 ft 533 kts 112°
2026-04-26 12:19 23.22173 61.39662 38788 ft 532 kts 113°
2026-04-26 12:20 23.18940 61.46928 38790 ft 532 kts 113°
2026-04-26 12:20 23.15727 61.54122 38785 ft 532 kts 113°
2026-04-26 12:21 23.12497 61.61338 38784 ft 531 kts 113°
2026-04-26 12:21 23.09265 61.68552 38788 ft 530 kts 113°
2026-04-26 12:22 23.06036 61.75756 38788 ft 530 kts 113°
2026-04-26 12:22 23.02796 61.82974 38790 ft 530 kts 113°
2026-04-26 12:23 22.99554 61.90171 38790 ft 530 kts 113°
2026-04-26 12:23 22.96332 61.97317 38790 ft 530 kts 113°
2026-04-26 12:24 22.93092 62.04496 38793 ft 529 kts 113°
2026-04-26 12:24 22.89865 62.11652 38788 ft 528 kts 107°
2026-04-26 12:25 22.85645 62.22565 38792 ft 521 kts 103°
2026-04-26 12:25 22.82658 62.29715 38796 ft 519 kts 106°
2026-04-26 12:26 22.79270 62.36651 38794 ft 525 kts 118°
2026-04-26 12:26 22.75595 62.43545 38793 ft 529 kts 116°
2026-04-26 12:27 22.72164 62.50586 38799 ft 528 kts 114°
2026-04-26 12:27 22.68924 62.57638 38800 ft 526 kts 113°
2026-04-26 12:28 22.65700 62.64744 38796 ft 525 kts 113°
2026-04-26 12:28 22.63017 62.70636 38797 ft 525 kts 113°
2026-04-26 12:29 22.59777 62.77720 38798 ft 525 kts 114°
2026-04-26 12:30 22.54903 62.88341 38792 ft 524 kts 114°
2026-04-26 12:30 22.51659 62.95394 38800 ft 524 kts 114°
2026-04-26 12:31 22.46785 63.05979 38802 ft 524 kts 114°
2026-04-26 12:31 22.43554 63.12987 38797 ft 524 kts 114°
2026-04-26 12:32 22.40364 63.20078 38798 ft 523 kts 113°
2026-04-26 12:33 22.35636 63.30722 38798 ft 523 kts 113°
2026-04-26 12:33 22.32472 63.37796 38806 ft 523 kts 113°
2026-04-26 12:34 22.29296 63.44870 38810 ft 523 kts 113°
2026-04-26 12:34 22.26118 63.51939 38806 ft 523 kts 113°
2026-04-26 12:35 22.22960 63.58951 38803 ft 523 kts 113°
2026-04-26 12:35 22.19770 63.66027 38811 ft 523 kts 113°
2026-04-26 12:36 22.16581 63.73091 38811 ft 523 kts 114°
2026-04-26 12:36 22.13413 63.80099 38809 ft 522 kts 114°
2026-04-26 12:37 22.10207 63.87179 38811 ft 522 kts 114°
2026-04-26 12:37 22.07037 63.94170 38809 ft 522 kts 114°
2026-04-26 12:38 22.03844 64.01205 38812 ft 521 kts 114°
2026-04-26 12:38 22.00650 64.08230 38807 ft 521 kts 114°
2026-04-26 12:39 21.97458 64.15240 38812 ft 521 kts 114°
2026-04-26 12:39 21.94265 64.22243 38813 ft 521 kts 114°
2026-04-26 12:40 21.91067 64.29249 38813 ft 521 kts 114°
2026-04-26 12:40 21.87868 64.36246 38817 ft 520 kts 114°
2026-04-26 12:41 21.84698 64.43171 38810 ft 519 kts 114°
2026-04-26 12:41 21.81499 64.50149 38814 ft 519 kts 114°
2026-04-26 12:42 21.78306 64.57106 38815 ft 519 kts 114°
2026-04-26 12:42 21.75105 64.64070 38810 ft 519 kts 114°
2026-04-26 12:43 21.71899 64.71035 38814 ft 519 kts 114°
2026-04-26 12:43 21.68717 64.77939 38815 ft 519 kts 114°
2026-04-26 12:44 21.65512 64.84883 38815 ft 518 kts 114°
2026-04-26 12:44 21.62306 64.91821 38815 ft 518 kts 114°
2026-04-26 12:45 21.59096 64.98759 38816 ft 518 kts 115°
2026-04-26 12:45 21.55886 65.05687 38816 ft 517 kts 115°
2026-04-26 12:46 21.52681 65.12593 38816 ft 517 kts 115°
2026-04-26 12:46 21.49465 65.19514 38808 ft 517 kts 115°
2026-04-26 12:47 21.46253 65.26419 38813 ft 516 kts 115°
2026-04-26 12:47 21.43071 65.33252 38813 ft 514 kts 115°
2026-04-26 12:48 21.39876 65.40101 38812 ft 513 kts 115°
2026-04-26 12:48 21.36674 65.46954 38812 ft 513 kts 115°
2026-04-26 12:49 21.33469 65.53808 38812 ft 513 kts 115°
2026-04-26 12:49 21.30260 65.60660 38813 ft 513 kts 115°
2026-04-26 12:50 21.27055 65.67498 38809 ft 513 kts 116°
2026-04-26 12:50 21.23865 65.74293 38812 ft 512 kts 116°
2026-04-26 12:51 21.20659 65.81111 38816 ft 511 kts 116°
2026-04-26 12:51 21.17455 65.87919 38812 ft 511 kts 116°
2026-04-26 12:52 21.14245 65.94729 38813 ft 511 kts 116°
2026-04-26 12:52 21.11040 66.01526 38812 ft 510 kts 116°
2026-04-26 12:53 21.07939 66.08308 38811 ft 510 kts 115°
2026-04-26 12:53 21.04862 66.15147 38809 ft 510 kts 115°
2026-04-26 12:54 21.01767 66.21987 38809 ft 510 kts 116°
2026-04-26 12:54 20.98660 66.28815 38811 ft 509 kts 116°
2026-04-26 12:55 20.95548 66.35636 38815 ft 509 kts 116°
2026-04-26 12:55 20.92453 66.42408 38806 ft 509 kts 116°
2026-04-26 12:56 20.89341 66.49211 38808 ft 509 kts 116°
2026-04-26 12:56 20.86226 66.56014 38811 ft 509 kts 116°
2026-04-26 12:57 20.83108 66.62813 38803 ft 508 kts 117°
2026-04-26 12:57 20.79997 66.69591 38800 ft 508 kts 117°
2026-04-26 12:58 20.75320 66.79762 38811 ft 507 kts 117°
2026-04-26 12:58 20.72206 66.86524 38812 ft 508 kts 117°
2026-04-26 12:59 20.69087 66.93286 38811 ft 507 kts 117°
2026-04-26 12:59 20.65961 67.00057 38805 ft 507 kts 117°
2026-04-26 13:00 20.62860 67.06764 38808 ft 507 kts 117°
2026-04-26 13:00 20.59733 67.13522 38809 ft 507 kts 117°
2026-04-26 13:01 20.56605 67.20270 38807 ft 507 kts 117°
2026-04-26 13:01 20.53475 67.27015 38806 ft 507 kts 117°
2026-04-26 13:02 20.50342 67.33758 38806 ft 507 kts 117°
2026-04-26 13:02 20.47206 67.40501 38812 ft 507 kts 117°
2026-04-26 13:03 20.44072 67.47229 38802 ft 507 kts 117°
2026-04-26 13:03 20.40930 67.53967 38805 ft 507 kts 117°
2026-04-26 13:04 20.37809 67.60652 38807 ft 507 kts 117°
2026-04-26 13:04 20.34665 67.67377 38807 ft 507 kts 117°
2026-04-26 13:05 20.31520 67.74097 38805 ft 507 kts 117°
2026-04-26 13:05 20.28372 67.80815 38809 ft 507 kts 117°
2026-04-26 13:06 20.25218 67.87536 38809 ft 507 kts 117°
2026-04-26 13:06 20.22068 67.94241 38811 ft 507 kts 118°
2026-04-26 13:07 20.18925 68.00923 38806 ft 507 kts 118°
2026-04-26 13:07 20.15768 68.07628 38808 ft 506 kts 118°
2026-04-26 13:08 20.12610 68.14327 38810 ft 506 kts 118°
2026-04-26 13:08 20.09449 68.21024 38808 ft 507 kts 118°
2026-04-26 13:09 20.06279 68.27730 38806 ft 507 kts 118°
2026-04-26 13:09 20.03097 68.34455 38809 ft 508 kts 118°
2026-04-26 13:10 19.99936 68.41127 38810 ft 508 kts 118°
2026-04-26 13:10 19.96751 68.47841 38810 ft 508 kts 118°
2026-04-26 13:11 19.93559 68.54563 38810 ft 508 kts 118°
2026-04-26 13:11 19.90361 68.61289 38804 ft 509 kts 118°
2026-04-26 13:12 19.87167 68.68001 38804 ft 509 kts 118°
2026-04-26 13:12 19.83967 68.74714 38804 ft 509 kts 118°
2026-04-26 13:13 19.80787 68.81380 38805 ft 509 kts 118°
2026-04-26 13:13 19.77576 68.88101 38806 ft 509 kts 118°
2026-04-26 13:14 19.74905 68.93687 38807 ft 510 kts 118°
2026-04-26 13:14 19.71692 69.00398 38807 ft 510 kts 119°
2026-04-26 13:15 19.68476 69.07107 38806 ft 510 kts 119°
2026-04-26 13:15 19.65255 69.13818 38807 ft 510 kts 119°
2026-04-26 13:16 19.62035 69.20523 38807 ft 510 kts 119°
2026-04-26 13:16 19.58809 69.27230 38808 ft 510 kts 119°
2026-04-26 13:17 19.53975 69.37284 38806 ft 510 kts 119°
2026-04-26 13:18 19.49336 69.47437 38808 ft 510 kts 118°
2026-04-26 13:19 19.44739 69.57545 38811 ft 509 kts 118°
2026-04-26 13:19 19.41644 69.64290 38812 ft 509 kts 118°
2026-04-26 13:20 19.38540 69.71035 38805 ft 509 kts 118°
2026-04-26 13:20 19.35433 69.77783 38805 ft 509 kts 118°
2026-04-26 13:21 19.32323 69.84530 38806 ft 509 kts 118°
2026-04-26 13:21 19.29218 69.91258 38805 ft 509 kts 119°
2026-04-26 13:22 19.26106 69.97994 38800 ft 509 kts 119°
2026-04-26 13:22 19.22998 70.04713 38806 ft 509 kts 119°
2026-04-26 13:23 19.19876 70.11454 38803 ft 509 kts 119°
2026-04-26 13:23 19.16778 70.18136 38803 ft 509 kts 119°
2026-04-26 13:24 19.13656 70.24861 38802 ft 509 kts 119°
2026-04-26 13:24 19.10537 70.31573 38803 ft 509 kts 119°
2026-04-26 13:25 19.07404 70.38306 38802 ft 509 kts 119°
2026-04-26 13:25 19.04278 70.45019 38803 ft 509 kts 119°
2026-04-26 13:26 19.01163 70.51698 38800 ft 509 kts 119°
2026-04-26 13:26 18.98031 70.58407 38797 ft 510 kts 120°
2026-04-26 13:27 18.94882 70.65143 38809 ft 510 kts 120°
2026-04-26 13:27 18.91738 70.71862 38793 ft 510 kts 120°
2026-04-26 13:28 18.88586 70.78590 38799 ft 510 kts 120°
2026-04-26 13:28 18.85454 70.85269 38810 ft 510 kts 120°
2026-04-26 13:29 18.82292 70.92002 38803 ft 511 kts 120°
2026-04-26 13:29 18.79133 70.98722 38782 ft 512 kts 120°
2026-04-26 13:30 18.75960 71.05464 38797 ft 513 kts 120°
2026-04-26 13:30 18.72784 71.12206 38799 ft 513 kts 120°
2026-04-26 13:31 18.69609 71.18938 38794 ft 513 kts 120°
2026-04-26 13:31 18.66424 71.25682 38793 ft 513 kts 120°
2026-04-26 13:32 18.63277 71.32339 38791 ft 513 kts 120°
2026-04-26 13:32 18.60086 71.39080 38791 ft 513 kts 120°
2026-04-26 13:33 18.56901 71.45803 38795 ft 513 kts 120°
2026-04-26 13:33 18.53710 71.52531 38796 ft 513 kts 120°
2026-04-26 13:34 18.50522 71.59245 38791 ft 512 kts 120°
2026-04-26 13:34 18.47331 71.65957 38796 ft 512 kts 120°
2026-04-26 13:35 18.44158 71.72624 38793 ft 512 kts 120°
2026-04-26 13:35 18.40963 71.79329 38793 ft 512 kts 120°
2026-04-26 13:36 18.37767 71.86029 38793 ft 512 kts 120°
2026-04-26 13:36 18.34572 71.92719 38790 ft 512 kts 121°
2026-04-26 13:37 18.31367 71.99423 38793 ft 512 kts 121°
2026-04-26 13:37 18.28159 72.06128 38794 ft 513 kts 121°
2026-04-26 13:38 18.24973 72.12778 38784 ft 512 kts 121°
2026-04-26 13:38 18.21763 72.19473 38791 ft 512 kts 121°
2026-04-26 13:39 18.18552 72.26159 38787 ft 512 kts 121°
2026-04-26 13:39 18.15333 72.32856 38791 ft 513 kts 121°
2026-04-26 13:40 18.12107 72.39560 38796 ft 513 kts 121°
2026-04-26 13:40 18.08884 72.46250 38795 ft 513 kts 121°
2026-04-26 13:41 18.05662 72.52932 38795 ft 513 kts 121°
2026-04-26 13:41 18.02433 72.59621 38801 ft 513 kts 121°
2026-04-26 13:42 17.99213 72.66283 38801 ft 513 kts 122°
2026-04-26 13:42 17.95977 72.72971 38804 ft 514 kts 122°
2026-04-26 13:43 17.92734 72.79668 38806 ft 514 kts 122°
2026-04-26 13:43 17.89491 72.86358 38805 ft 514 kts 122°
2026-04-26 13:44 17.86266 72.93004 38809 ft 514 kts 122°
2026-04-26 13:44 17.83011 72.99702 38812 ft 514 kts 122°
2026-04-26 13:45 17.79758 73.06389 38815 ft 515 kts 122°
2026-04-26 13:45 17.76514 73.13054 38825 ft 515 kts 122°
2026-04-26 13:46 17.73241 73.19768 38823 ft 515 kts 122°
2026-04-26 13:46 17.69984 73.26446 38834 ft 514 kts 122°
2026-04-26 13:47 17.66720 73.33123 38835 ft 514 kts 122°
2026-04-26 13:47 17.63450 73.39802 38860 ft 514 kts 122°
2026-04-26 13:48 17.60182 73.46476 38858 ft 514 kts 122°
2026-04-26 13:48 17.56933 73.53103 38873 ft 514 kts 122°
2026-04-26 13:49 17.53659 73.59771 38874 ft 514 kts 122°
2026-04-26 13:49 17.50376 73.66456 38883 ft 514 kts 122°
2026-04-26 13:50 17.47097 73.73122 38883 ft 514 kts 122°
2026-04-26 13:50 17.43836 73.79746 38890 ft 514 kts 122°
2026-04-26 13:51 17.40554 73.86405 38880 ft 514 kts 122°
2026-04-26 13:51 17.37277 73.93046 38890 ft 513 kts 122°
2026-04-26 13:52 17.33998 73.99685 38891 ft 513 kts 122°
2026-04-26 13:52 17.30720 74.06315 38892 ft 513 kts 122°
2026-04-26 13:53 17.27432 74.12960 38887 ft 513 kts 122°
2026-04-26 13:53 17.24170 74.19545 38890 ft 513 kts 122°
2026-04-26 13:54 17.20885 74.26172 38885 ft 513 kts 122°
2026-04-26 13:54 17.17604 74.32799 38883 ft 513 kts 122°
2026-04-26 13:55 17.13219 74.41626 38884 ft 513 kts 122°
2026-04-26 13:56 17.07741 74.52641 38880 ft 511 kts 122°
2026-04-26 13:56 17.04483 74.59185 38881 ft 511 kts 122°
2026-04-26 13:57 17.01200 74.65772 38873 ft 511 kts 122°
2026-04-26 13:57 16.97916 74.72354 38873 ft 511 kts 122°
2026-04-26 13:58 16.94631 74.78934 38867 ft 511 kts 122°
2026-04-26 13:58 16.91900 74.84399 38867 ft 511 kts 122°
2026-04-26 13:59 16.88608 74.90980 38873 ft 511 kts 122°
2026-04-26 13:59 16.85315 74.97556 38873 ft 511 kts 122°
2026-04-26 14:00 16.78739 75.10673 38873 ft 508 kts 123°
2026-04-26 14:01 16.75462 75.17197 38876 ft 507 kts 123°
2026-04-26 14:01 16.72195 75.23695 38872 ft 507 kts 123°
2026-04-26 14:02 16.68910 75.30221 38870 ft 507 kts 123°
2026-04-26 14:02 16.65628 75.36737 38862 ft 507 kts 123°
2026-04-26 14:03 16.62349 75.43241 38865 ft 507 kts 123°
2026-04-26 14:03 16.59095 75.49756 38847 ft 511 kts 121°
2026-04-26 14:04 16.56002 75.56468 38857 ft 512 kts 120°
2026-04-26 14:04 16.52978 75.63145 38868 ft 509 kts 120°
2026-04-26 14:05 16.49932 75.69782 38858 ft 508 kts 121°
2026-04-26 14:05 16.46864 75.76402 38857 ft 508 kts 121°
2026-04-26 14:06 16.43780 75.83036 38852 ft 509 kts 121°
2026-04-26 14:06 16.40682 75.89696 38853 ft 510 kts 121°
2026-04-26 14:07 16.37591 75.96342 38851 ft 510 kts 121°
2026-04-26 14:07 16.34508 76.02966 38851 ft 510 kts 121°
2026-04-26 14:08 16.31377 76.09612 38844 ft 510 kts 121°
2026-04-26 14:08 16.28247 76.16228 38837 ft 510 kts 121°
2026-04-26 14:09 16.25113 76.22855 38834 ft 512 kts 121°
2026-04-26 14:09 16.21979 76.29489 38833 ft 512 kts 121°
2026-04-26 14:10 16.18841 76.36128 38829 ft 512 kts 121°
2026-04-26 14:10 16.15694 76.42777 38829 ft 512 kts 121°
2026-04-26 14:11 16.10994 76.52693 38818 ft 511 kts 121°
2026-04-26 14:11 16.07828 76.59367 38820 ft 512 kts 121°
2026-04-26 14:12 16.04681 76.65994 38812 ft 511 kts 121°
2026-04-26 14:12 16.01534 76.72614 38813 ft 511 kts 121°
2026-04-26 14:13 15.96814 76.82531 38813 ft 511 kts 121°
2026-04-26 14:14 15.93646 76.89178 38805 ft 512 kts 121°
2026-04-26 14:14 15.90495 76.95783 38804 ft 512 kts 121°
2026-04-26 14:15 15.87327 77.02417 38804 ft 512 kts 121°
2026-04-26 14:15 15.84162 77.09041 38807 ft 512 kts 121°
2026-04-26 14:16 15.80979 77.15695 38804 ft 512 kts 121°
2026-04-26 14:16 15.77813 77.22306 38802 ft 512 kts 121°
2026-04-26 14:17 15.74652 77.28899 38810 ft 514 kts 120°
2026-04-26 14:17 15.71456 77.35561 38809 ft 515 kts 121°
2026-04-26 14:18 15.68276 77.42241 38810 ft 516 kts 120°
2026-04-26 14:18 15.65114 77.48888 38809 ft 516 kts 120°
2026-04-26 14:19 15.61940 77.55554 38807 ft 516 kts 121°
2026-04-26 14:19 15.58746 77.62250 38815 ft 516 kts 121°
2026-04-26 14:20 15.55560 77.68918 38819 ft 516 kts 121°
2026-04-26 14:20 15.52387 77.75555 38816 ft 517 kts 121°
2026-04-26 14:21 15.49187 77.82243 38809 ft 517 kts 121°
2026-04-26 14:21 15.46002 77.88893 38815 ft 516 kts 121°
2026-04-26 14:22 15.42809 77.95555 38820 ft 517 kts 121°
2026-04-26 14:22 15.39614 78.02212 38820 ft 517 kts 121°
2026-04-26 14:23 15.36406 78.08892 38814 ft 517 kts 121°
2026-04-26 14:23 15.33196 78.15540 38806 ft 517 kts 121°
2026-04-26 14:24 15.29947 78.22170 38793 ft 516 kts 121°
2026-04-26 14:24 15.26686 78.28814 38794 ft 515 kts 121°
2026-04-26 14:25 15.23436 78.35445 38801 ft 515 kts 121°
2026-04-26 14:25 15.20200 78.42051 38801 ft 515 kts 121°
2026-04-26 14:26 15.16967 78.48647 38791 ft 515 kts 121°
2026-04-26 14:26 15.13734 78.55236 38788 ft 515 kts 121°
2026-04-26 14:27 15.10481 78.61861 38801 ft 515 kts 121°
2026-04-26 14:27 15.07241 78.68450 38795 ft 515 kts 121°
2026-04-26 14:28 15.03986 78.75065 38792 ft 516 kts 121°
2026-04-26 14:28 15.00714 78.81710 38787 ft 517 kts 121°
2026-04-26 14:29 14.97461 78.88310 38793 ft 516 kts 121°
2026-04-26 14:29 14.94210 78.94900 38788 ft 516 kts 121°
2026-04-26 14:30 14.90948 79.01506 38792 ft 516 kts 121°
2026-04-26 14:30 14.87673 79.08132 38796 ft 517 kts 121°
2026-04-26 14:31 14.84384 79.14780 38790 ft 518 kts 121°
2026-04-26 14:31 14.81113 79.21387 38793 ft 518 kts 121°
2026-04-26 14:32 14.77830 79.28013 38791 ft 518 kts 121°
2026-04-26 14:32 14.74552 79.34625 38794 ft 518 kts 121°
2026-04-26 14:33 14.71265 79.41247 38788 ft 518 kts 121°
2026-04-26 14:33 14.67958 79.47903 38785 ft 518 kts 121°
2026-04-26 14:34 14.64690 79.54476 38794 ft 517 kts 121°
2026-04-26 14:34 14.61416 79.61053 38788 ft 516 kts 121°
2026-04-26 14:35 14.58119 79.67672 38792 ft 516 kts 121°
2026-04-26 14:35 14.54840 79.74250 38792 ft 516 kts 122°
2026-04-26 14:36 14.51557 79.80828 38795 ft 516 kts 121°
2026-04-26 14:36 14.48256 79.87437 38798 ft 517 kts 121°
2026-04-26 14:37 14.44976 79.93999 38794 ft 516 kts 121°
2026-04-26 14:37 14.41678 80.00592 38797 ft 516 kts 121°
2026-04-26 14:38 14.38383 80.07174 38801 ft 516 kts 121°
2026-04-26 14:38 14.35100 80.13725 38797 ft 516 kts 121°
2026-04-26 14:39 14.31799 80.20308 38799 ft 515 kts 121°
2026-04-26 14:39 14.28510 80.26860 38800 ft 516 kts 121°
2026-04-26 14:40 14.25204 80.33441 38803 ft 516 kts 121°
2026-04-26 14:40 14.21906 80.40000 38804 ft 516 kts 121°
2026-04-26 14:41 14.18612 80.46547 38809 ft 516 kts 121°
2026-04-26 14:41 14.15328 80.53068 38814 ft 516 kts 121°
2026-04-26 14:42 14.12018 80.59633 38816 ft 516 kts 121°
2026-04-26 14:42 14.08690 80.66231 38813 ft 517 kts 121°
2026-04-26 14:43 14.05388 80.72772 38815 ft 517 kts 121°
2026-04-26 14:43 14.02074 80.79330 38822 ft 516 kts 121°
2026-04-26 14:44 13.98774 80.85885 38820 ft 516 kts 121°
2026-04-26 14:44 13.95557 80.92505 38821 ft 516 kts 120°
2026-04-26 14:45 13.92375 80.99104 38825 ft 517 kts 120°
2026-04-26 14:45 13.89159 81.05740 38831 ft 517 kts 120°
2026-04-26 14:46 13.85939 81.12354 38832 ft 517 kts 120°
2026-04-26 14:46 13.82719 81.18956 38832 ft 517 kts 120°
2026-04-26 14:47 13.79502 81.25549 38837 ft 517 kts 120°
2026-04-26 14:47 13.76284 81.32139 38840 ft 517 kts 120°
2026-04-26 14:48 13.73035 81.38786 38839 ft 517 kts 120°
2026-04-26 14:48 13.69802 81.45395 38837 ft 517 kts 120°
2026-04-26 14:49 13.66604 81.51957 38840 ft 516 kts 120°
2026-04-26 14:49 13.63377 81.58565 38848 ft 516 kts 120°
2026-04-26 14:50 13.60151 81.65166 38848 ft 516 kts 120°
2026-04-26 14:50 13.56931 81.71750 38847 ft 516 kts 120°
2026-04-26 14:51 13.53700 81.78350 38849 ft 516 kts 120°
2026-04-26 14:51 13.50477 81.84931 38853 ft 516 kts 120°
2026-04-26 14:52 13.47780 81.90435 38852 ft 516 kts 120°
2026-04-26 14:52 13.44567 81.96985 38853 ft 516 kts 120°
2026-04-26 14:53 13.40791 82.04675 38854 ft 516 kts 120°
2026-04-26 14:53 13.38082 82.10191 38854 ft 516 kts 120°
2026-04-26 14:54 13.34853 82.16758 38855 ft 514 kts 120°
2026-04-26 14:54 13.31641 82.23288 38853 ft 512 kts 120°
2026-04-26 14:55 13.28439 82.29787 38856 ft 512 kts 120°
2026-04-26 14:55 13.25211 82.36336 38855 ft 512 kts 120°
2026-04-26 14:56 13.22006 82.42835 38858 ft 512 kts 120°
2026-04-26 14:56 13.18799 82.49330 38859 ft 511 kts 120°
2026-04-26 14:57 13.15565 82.55878 38859 ft 511 kts 120°
2026-04-26 14:57 13.12360 82.62361 38858 ft 511 kts 120°
2026-04-26 14:58 13.09141 82.68867 38861 ft 511 kts 120°
2026-04-26 14:58 13.05916 82.75380 38865 ft 511 kts 120°
2026-04-26 14:59 13.02703 82.81864 38862 ft 511 kts 119°
2026-04-26 14:59 12.99501 82.88320 38864 ft 507 kts 119°
2026-04-26 15:00 12.96299 82.94775 38868 ft 506 kts 119°
2026-04-26 15:00 12.93123 83.01169 38869 ft 506 kts 119°
2026-04-26 15:01 12.89912 83.07629 38870 ft 506 kts 119°
2026-04-26 15:01 12.86722 83.14042 38868 ft 506 kts 119°
2026-04-26 15:02 12.83522 83.20470 38866 ft 506 kts 119°
2026-04-26 15:02 12.80339 83.26862 38867 ft 505 kts 119°
2026-04-26 15:03 12.77138 83.33282 38868 ft 505 kts 119°
2026-04-26 15:03 12.73944 83.39686 38869 ft 505 kts 119°
2026-04-26 15:04 12.70753 83.46077 38872 ft 505 kts 119°
2026-04-26 15:04 12.67557 83.52474 38868 ft 504 kts 118°
2026-04-26 15:05 12.64388 83.58855 38868 ft 503 kts 118°
2026-04-26 15:05 12.61308 83.65277 38871 ft 504 kts 117°
2026-04-26 15:06 12.58231 83.71728 38872 ft 504 kts 117°
2026-04-26 15:06 12.55124 83.78207 38873 ft 504 kts 117°
2026-04-26 15:07 12.50496 83.87815 38873 ft 504 kts 117°
2026-04-26 15:07 12.47376 83.94283 38873 ft 506 kts 117°
2026-04-26 15:08 12.44256 84.00746 38872 ft 509 kts 117°
2026-04-26 15:08 12.41127 84.07227 38871 ft 509 kts 117°
2026-04-26 15:09 12.37992 84.13715 38869 ft 509 kts 117°
2026-04-26 15:09 12.34853 84.20206 38869 ft 509 kts 117°
2026-04-26 15:10 12.32230 84.25627 38872 ft 509 kts 117°
2026-04-26 15:10 12.28578 84.33167 38872 ft 510 kts 117°
2026-04-26 15:11 12.25420 84.39683 38881 ft 510 kts 117°
2026-04-26 15:11 12.22277 84.46164 38869 ft 510 kts 117°
2026-04-26 15:12 12.19118 84.52672 38869 ft 510 kts 117°
2026-04-26 15:12 12.15970 84.59153 38885 ft 509 kts 117°
2026-04-26 15:13 12.12828 84.65619 38872 ft 510 kts 117°
2026-04-26 15:13 12.09691 84.72065 38865 ft 507 kts 117°
2026-04-26 15:14 12.06541 84.78537 38871 ft 506 kts 117°
2026-04-26 15:14 12.03407 84.84973 38872 ft 506 kts 117°
2026-04-26 15:15 12.00287 84.91372 38882 ft 506 kts 117°
2026-04-26 15:15 11.97144 84.97813 38881 ft 504 kts 116°
2026-04-26 15:16 11.94028 85.04198 38880 ft 503 kts 116°
2026-04-26 15:16 11.90914 85.10575 38867 ft 502 kts 116°
2026-04-26 15:17 11.88314 85.15894 38876 ft 501 kts 116°
2026-04-26 15:17 11.84680 85.23325 38881 ft 501 kts 116°
2026-04-26 15:18 11.81577 85.29664 38880 ft 501 kts 116°
2026-04-26 15:18 11.78441 85.36067 38879 ft 501 kts 116°
2026-04-26 15:19 11.75332 85.42409 38880 ft 501 kts 116°
2026-04-26 15:19 11.72221 85.48754 38883 ft 501 kts 116°
2026-04-26 15:20 11.69092 85.55129 38864 ft 500 kts 116°
2026-04-26 15:20 11.65977 85.61472 38867 ft 500 kts 116°
2026-04-26 15:21 11.62868 85.67797 38864 ft 500 kts 116°
2026-04-26 15:21 11.59754 85.74129 38877 ft 501 kts 116°
2026-04-26 15:22 11.56636 85.80466 38883 ft 500 kts 116°
2026-04-26 15:22 11.53517 85.86799 38880 ft 500 kts 116°
2026-04-26 15:23 11.50380 85.93165 38882 ft 500 kts 116°
2026-04-26 15:23 11.47259 85.99496 38882 ft 500 kts 116°
2026-04-26 15:24 11.44125 86.05847 38878 ft 500 kts 116°
2026-04-26 15:24 11.41002 86.12172 38879 ft 500 kts 116°
2026-04-26 15:25 11.38389 86.17462 38866 ft 500 kts 116°
2026-04-26 15:25 11.34742 86.24837 38865 ft 501 kts 116°
2026-04-26 15:26 11.31611 86.31167 38879 ft 501 kts 116°
2026-04-26 15:26 11.28485 86.37481 38876 ft 500 kts 116°
2026-04-26 15:27 11.25336 86.43840 38875 ft 500 kts 116°
2026-04-26 15:27 11.22218 86.50129 38877 ft 500 kts 116°
2026-04-26 15:28 11.19083 86.56450 38876 ft 500 kts 116°
2026-04-26 15:28 11.15962 86.62739 38880 ft 500 kts 116°
2026-04-26 15:29 11.12814 86.69079 38880 ft 500 kts 116°
2026-04-26 15:30 11.06535 86.81709 38879 ft 500 kts 116°
2026-04-26 15:30 11.03411 86.87987 38878 ft 500 kts 116°
2026-04-26 15:31 10.98703 86.97442 38879 ft 500 kts 116°
2026-04-26 15:32 10.95031 87.04811 38879 ft 501 kts 116°
2026-04-26 15:32 10.90832 87.13228 38879 ft 500 kts 116°
2026-04-26 15:33 10.87684 87.19536 38879 ft 499 kts 116°
2026-04-26 15:33 10.84532 87.25847 38881 ft 499 kts 116°
2026-04-26 15:34 10.81384 87.32147 38877 ft 499 kts 116°
2026-04-26 15:34 10.78259 87.38397 38882 ft 500 kts 116°
2026-04-26 15:35 10.75102 87.44707 38879 ft 500 kts 116°
2026-04-26 15:35 10.71962 87.50979 38882 ft 500 kts 116°
2026-04-26 15:36 10.68803 87.57283 38881 ft 500 kts 116°
2026-04-26 15:36 10.65634 87.63605 38882 ft 500 kts 116°
2026-04-26 15:37 10.62487 87.69881 38883 ft 500 kts 116°
2026-04-26 15:37 10.59333 87.76165 38881 ft 500 kts 116°
2026-04-26 15:38 10.56175 87.82454 38883 ft 501 kts 116°
2026-04-26 15:38 10.53004 87.88764 38885 ft 501 kts 117°
2026-04-26 15:39 10.49836 87.95066 38883 ft 500 kts 116°
2026-04-26 15:39 10.47736 87.99239 38883 ft 500 kts 117°
2026-04-26 15:40 10.43516 88.07625 38885 ft 500 kts 117°
2026-04-26 15:40 10.40351 88.13910 38883 ft 501 kts 117°
2026-04-26 15:41 10.37158 88.20244 38884 ft 501 kts 117°
2026-04-26 15:41 10.34001 88.26504 38883 ft 501 kts 117°
2026-04-26 15:42 10.30826 88.32798 38888 ft 501 kts 117°
2026-04-26 15:42 10.27639 88.39110 38887 ft 501 kts 117°
2026-04-26 15:43 10.24457 88.45409 38891 ft 501 kts 117°
2026-04-26 15:44 10.19702 88.54834 38888 ft 502 kts 116°
2026-04-26 15:44 10.15286 88.64477 38890 ft 503 kts 114°
2026-04-26 15:45 10.11419 88.73064 38887 ft 502 kts 115°
2026-04-26 15:46 10.06513 88.83776 38888 ft 502 kts 115°
2026-04-26 15:46 10.04541 88.88067 38887 ft 502 kts 115°
2026-04-26 15:47 9.99616 88.98780 38885 ft 503 kts 115°
2026-04-26 15:48 9.96661 89.05207 38885 ft 503 kts 115°
2026-04-26 15:48 9.93698 89.11646 38888 ft 503 kts 115°
2026-04-26 15:49 9.90760 89.18030 38890 ft 503 kts 115°
2026-04-26 15:49 9.87799 89.24457 38888 ft 503 kts 115°
2026-04-26 15:50 9.84834 89.30890 38887 ft 503 kts 115°
2026-04-26 15:50 9.81865 89.37326 38888 ft 503 kts 115°
2026-04-26 15:51 9.78911 89.43727 38889 ft 503 kts 115°
2026-04-26 15:51 9.75955 89.50130 38891 ft 503 kts 115°
2026-04-26 15:52 9.72990 89.56548 38890 ft 503 kts 115°
2026-04-26 15:52 9.70020 89.62971 38889 ft 503 kts 115°
2026-04-26 15:53 9.67047 89.69398 38882 ft 503 kts 115°
2026-04-26 15:53 9.64065 89.75842 38886 ft 503 kts 115°
2026-04-26 15:54 9.61103 89.82239 38888 ft 503 kts 115°
2026-04-26 15:54 9.58145 89.88623 38888 ft 503 kts 115°
2026-04-26 15:55 9.55169 89.95043 38885 ft 503 kts 115°
2026-04-26 15:55 9.52204 90.01434 38887 ft 503 kts 115°
2026-04-26 15:56 9.49228 90.07847 38891 ft 502 kts 115°
2026-04-26 15:56 9.46265 90.14225 38888 ft 502 kts 115°
2026-04-26 15:57 9.43286 90.20640 38887 ft 503 kts 115°
2026-04-26 15:57 9.40303 90.27053 38887 ft 503 kts 115°
2026-04-26 15:58 9.37316 90.33475 38892 ft 503 kts 115°
2026-04-26 15:58 9.34338 90.39873 38891 ft 503 kts 116°
2026-04-26 15:59 9.31364 90.46261 38885 ft 501 kts 116°
2026-04-26 15:59 9.28399 90.52623 38889 ft 501 kts 116°
2026-04-26 16:00 9.25426 90.58999 38891 ft 500 kts 116°
2026-04-26 16:00 9.22459 90.65359 38888 ft 501 kts 116°
2026-04-26 16:01 9.19494 90.71712 38883 ft 501 kts 116°
2026-04-26 16:01 9.16512 90.78099 38885 ft 500 kts 116°
2026-04-26 16:02 9.13548 90.84441 38885 ft 500 kts 116°
2026-04-26 16:02 9.10570 90.90812 38883 ft 500 kts 116°
2026-04-26 16:03 9.07606 90.97149 38884 ft 500 kts 116°
2026-04-26 16:03 9.04625 91.03518 38885 ft 500 kts 116°
2026-04-26 16:04 9.01642 91.09888 39135 ft 500 kts 116°
2026-04-26 16:04 9.00171 91.13030 39299 ft 500 kts 116°
2026-04-26 16:04 8.98677 91.16218 39472 ft 499 kts 116°
2026-04-26 16:04 8.97196 91.19378 39671 ft 498 kts 116°
2026-04-26 16:05 8.95711 91.22545 39827 ft 498 kts 116°
2026-04-26 16:05 8.94231 91.25702 39936 ft 499 kts 116°
2026-04-26 16:05 8.92752 91.28856 40114 ft 498 kts 116°
2026-04-26 16:05 8.91262 91.32032 40281 ft 497 kts 116°
2026-04-26 16:06 8.89784 91.35181 40395 ft 497 kts 116°
2026-04-26 16:06 8.88294 91.38354 40525 ft 497 kts 116°
2026-04-26 16:06 8.86818 91.41498 40694 ft 496 kts 116°
2026-04-26 16:06 8.85332 91.44663 40828 ft 496 kts 116°
2026-04-26 16:07 8.83850 91.47818 40886 ft 497 kts 116°
2026-04-26 16:07 8.80887 91.54121 40880 ft 495 kts 115°
2026-04-26 16:08 8.77951 91.60367 40879 ft 496 kts 115°
2026-04-26 16:08 8.74976 91.66691 40881 ft 495 kts 115°
2026-04-26 16:09 8.72032 91.72946 40884 ft 496 kts 115°
2026-04-26 16:09 8.69074 91.79228 40880 ft 495 kts 116°
2026-04-26 16:10 8.66118 91.85500 40881 ft 494 kts 116°
2026-04-26 16:10 8.63153 91.91792 40883 ft 495 kts 115°
2026-04-26 16:11 8.60200 91.98052 40879 ft 494 kts 116°
2026-04-26 16:11 8.57301 92.04322 40879 ft 494 kts 114°
2026-04-26 16:12 8.54505 92.10698 40879 ft 494 kts 114°
2026-04-26 16:12 8.50350 92.20179 40883 ft 493 kts 114°
2026-04-26 16:13 8.47546 92.26514 40879 ft 494 kts 114°
2026-04-26 16:13 8.44746 92.32826 40880 ft 492 kts 115°
2026-04-26 16:14 8.41955 92.39109 40877 ft 491 kts 114°
2026-04-26 16:15 8.37756 92.48562 40882 ft 491 kts 114°
2026-04-26 16:15 8.34950 92.54878 40880 ft 491 kts 115°
2026-04-26 16:16 8.30769 92.64280 40881 ft 489 kts 114°
2026-04-26 16:16 8.27983 92.70543 40883 ft 488 kts 115°
2026-04-26 16:17 8.25208 92.76775 40876 ft 488 kts 115°
2026-04-26 16:17 8.22426 92.83022 40877 ft 488 kts 115°
2026-04-26 16:18 8.18258 92.92374 40878 ft 488 kts 115°
2026-04-26 16:19 8.14093 93.01714 40880 ft 488 kts 115°
2026-04-26 16:20 8.09907 93.11093 40880 ft 488 kts 115°
2026-04-26 16:20 8.05731 93.20444 40874 ft 488 kts 115°
2026-04-26 16:21 8.02947 93.26672 40878 ft 488 kts 115°
2026-04-26 16:21 8.00158 93.32912 40877 ft 488 kts 115°
2026-04-26 16:22 7.97369 93.39145 40875 ft 488 kts 115°
2026-04-26 16:22 7.94584 93.45369 40877 ft 488 kts 115°
2026-04-26 16:23 7.91788 93.51620 40870 ft 488 kts 115°
2026-04-26 16:23 7.89014 93.57864 40877 ft 488 kts 114°
2026-04-26 16:24 7.86244 93.64110 40874 ft 488 kts 115°
2026-04-26 16:24 7.83467 93.70363 40877 ft 488 kts 115°
2026-04-26 16:25 7.80688 93.76616 40877 ft 488 kts 115°
2026-04-26 16:25 7.77928 93.82820 40870 ft 488 kts 114°
2026-04-26 16:26 7.75601 93.88049 40871 ft 489 kts 115°
2026-04-26 16:26 7.72362 93.95325 40875 ft 489 kts 115°
2026-04-26 16:27 7.69566 94.01603 40868 ft 489 kts 114°
2026-04-26 16:27 7.66794 94.07823 40883 ft 489 kts 115°
2026-04-26 16:28 7.63991 94.14110 40870 ft 489 kts 115°
2026-04-26 16:28 7.61212 94.20340 40871 ft 489 kts 115°
2026-04-26 16:29 7.58423 94.26591 40878 ft 489 kts 114°
2026-04-26 16:29 7.55636 94.32832 40869 ft 490 kts 114°
2026-04-26 16:30 7.52851 94.39070 40871 ft 489 kts 115°
2026-04-26 16:30 7.50007 94.45334 40870 ft 489 kts 116°
2026-04-26 16:31 7.46995 94.51497 40869 ft 489 kts 117°
2026-04-26 16:31 7.43963 94.57629 40871 ft 489 kts 116°
2026-04-26 16:32 7.41470 94.62719 40871 ft 491 kts 116°
2026-04-26 16:32 7.37953 94.69949 40869 ft 491 kts 116°
2026-04-26 16:33 7.34953 94.76127 40866 ft 491 kts 116°
2026-04-26 16:33 7.31954 94.82295 40867 ft 491 kts 116°
2026-04-26 16:34 7.28944 94.88484 40869 ft 491 kts 116°
2026-04-26 16:34 7.25946 94.94643 40866 ft 491 kts 116°
2026-04-26 16:35 7.22950 95.00797 40867 ft 489 kts 116°
2026-04-26 16:35 7.19961 95.06932 40864 ft 488 kts 116°
2026-04-26 16:36 7.16973 95.13064 40865 ft 489 kts 116°
2026-04-26 16:36 7.13971 95.19222 40864 ft 491 kts 116°
2026-04-26 16:37 7.10957 95.25401 40864 ft 490 kts 116°
2026-04-26 16:37 7.08448 95.30543 40864 ft 491 kts 116°
2026-04-26 16:38 7.04957 95.37698 40862 ft 490 kts 116°
2026-04-26 16:38 7.01952 95.43852 40862 ft 490 kts 116°
2026-04-26 16:39 6.98945 95.50007 40863 ft 490 kts 116°
2026-04-26 16:39 6.95942 95.56151 40862 ft 490 kts 116°
2026-04-26 16:40 6.92924 95.62324 40857 ft 490 kts 116°
2026-04-26 16:40 6.89928 95.68451 40861 ft 490 kts 116°
2026-04-26 16:41 6.86916 95.74606 40858 ft 489 kts 116°
2026-04-26 16:41 6.83920 95.80728 40860 ft 487 kts 116°
2026-04-26 16:42 6.81430 95.85814 40859 ft 487 kts 116°
2026-04-26 16:42 6.78441 95.91915 40859 ft 487 kts 116°
2026-04-26 16:43 6.75436 95.98049 40859 ft 488 kts 116°
2026-04-26 16:43 6.72447 96.04162 40859 ft 488 kts 116°
2026-04-26 16:44 6.69455 96.10261 40861 ft 488 kts 116°
2026-04-26 16:44 6.66446 96.16393 40859 ft 486 kts 116°
2026-04-26 16:45 6.63464 96.22471 40859 ft 486 kts 116°
2026-04-26 16:45 6.60472 96.28569 40859 ft 486 kts 116°
2026-04-26 16:46 6.57477 96.34671 40860 ft 486 kts 116°
2026-04-26 16:46 6.54498 96.40739 40859 ft 486 kts 116°
2026-04-26 16:47 6.51509 96.46833 40858 ft 486 kts 116°
2026-04-26 16:47 6.49183 96.53212 40860 ft 486 kts 107°
2026-04-26 16:48 6.47243 96.59699 40860 ft 486 kts 106°
2026-04-26 16:48 6.45347 96.66251 40860 ft 486 kts 106°
2026-04-26 16:49 6.43464 96.72734 40859 ft 486 kts 106°
2026-04-26 16:49 6.41557 96.79253 40859 ft 486 kts 107°
2026-04-26 16:50 6.39647 96.85761 40858 ft 483 kts 106°
2026-04-26 16:50 6.37751 96.92216 40858 ft 484 kts 106°
2026-04-26 16:51 6.35845 96.98704 40857 ft 484 kts 106°
2026-04-26 16:51 6.33945 97.05166 40856 ft 484 kts 106°
2026-04-26 16:52 6.32351 97.10588 40856 ft 484 kts 106°
2026-04-26 16:52 6.30132 97.18132 40857 ft 484 kts 106°
2026-04-26 16:53 6.28219 97.24633 40857 ft 484 kts 106°
2026-04-26 16:53 6.26316 97.31095 40858 ft 484 kts 106°
2026-04-26 16:54 6.24409 97.37570 40856 ft 484 kts 106°
2026-04-26 16:54 6.22501 97.44043 40857 ft 484 kts 106°
2026-04-26 16:55 6.20585 97.50539 40858 ft 484 kts 106°
2026-04-26 16:55 6.18419 97.56915 40857 ft 484 kts 115°
2026-04-26 16:56 6.14761 97.62568 40856 ft 484 kts 128°
2026-04-26 16:56 6.12614 97.65175 40855 ft 485 kts 130°
2026-04-26 16:57 6.08196 97.70283 40857 ft 485 kts 131°
2026-04-26 16:57 6.01524 97.77980 40856 ft 484 kts 131°
2026-04-26 16:58 5.97853 97.82205 40858 ft 482 kts 131°
2026-04-26 16:59 5.90539 97.90644 40855 ft 482 kts 131°
2026-04-26 17:00 5.81732 98.00844 40857 ft 483 kts 131°
2026-04-26 17:00 5.75129 98.08489 40859 ft 484 kts 131°
2026-04-26 17:01 5.70715 98.13597 40853 ft 483 kts 131°
2026-04-26 17:01 5.66312 98.18692 40854 ft 484 kts 131°
2026-04-26 17:02 5.61923 98.23768 40850 ft 481 kts 131°
2026-04-26 17:02 5.57534 98.28844 40854 ft 478 kts 131°
2026-04-26 17:03 5.53188 98.33869 40851 ft 478 kts 131°
2026-04-26 17:03 5.48799 98.38942 40853 ft 480 kts 130°
2026-04-26 17:04 5.44431 98.43990 40855 ft 480 kts 130°
2026-04-26 17:04 5.40050 98.49051 40851 ft 480 kts 131°
2026-04-26 17:05 5.35662 98.54119 40851 ft 481 kts 131°
2026-04-26 17:05 5.31292 98.59165 40855 ft 481 kts 130°
2026-04-26 17:06 5.26916 98.64218 40856 ft 480 kts 131°
2026-04-26 17:06 5.22541 98.69267 40850 ft 479 kts 131°
2026-04-26 17:07 5.18178 98.74301 40855 ft 479 kts 130°
2026-04-26 17:07 5.13800 98.79353 40855 ft 480 kts 130°
2026-04-26 17:08 5.09411 98.84415 40855 ft 481 kts 130°
2026-04-26 17:08 5.05026 98.89472 40849 ft 481 kts 130°
2026-04-26 17:09 5.01353 98.93707 40856 ft 481 kts 130°
2026-04-26 17:09 4.96234 98.99607 40857 ft 480 kts 130°
2026-04-26 17:10 4.91860 99.04647 40852 ft 481 kts 130°
2026-04-26 17:10 4.87475 99.09700 40850 ft 480 kts 130°
2026-04-26 17:11 4.83103 99.14737 40855 ft 480 kts 130°
2026-04-26 17:11 4.78685 99.19824 40855 ft 481 kts 130°
2026-04-26 17:12 4.72104 99.27400 40851 ft 481 kts 130°
2026-04-26 17:13 4.65535 99.34962 40855 ft 481 kts 130°
2026-04-26 17:14 4.58949 99.42539 40852 ft 481 kts 130°
2026-04-26 17:14 4.52344 99.50138 40852 ft 480 kts 131°
2026-04-26 17:15 4.45643 99.57555 40851 ft 480 kts 134°
2026-04-26 17:16 4.40938 99.62251 40852 ft 479 kts 135°
2026-04-26 17:16 4.36193 99.67000 40853 ft 480 kts 134°
2026-04-26 17:17 4.31518 99.71748 40849 ft 480 kts 134°
2026-04-26 17:17 4.26872 99.76497 40852 ft 480 kts 134°
2026-04-26 17:18 4.22191 99.81286 40850 ft 480 kts 134°
2026-04-26 17:18 4.17530 99.86051 40852 ft 480 kts 134°
2026-04-26 17:19 4.10524 99.93207 40852 ft 480 kts 134°
2026-04-26 17:19 4.05857 99.97973 40851 ft 480 kts 134°
2026-04-26 17:20 4.02725 100.01171 40850 ft 480 kts 134°
2026-04-26 17:20 3.96514 100.07512 40847 ft 480 kts 134°
2026-04-26 17:21 3.91828 100.12296 40846 ft 480 kts 134°
2026-04-26 17:21 3.87164 100.17056 40849 ft 480 kts 134°
2026-04-26 17:22 3.82490 100.21824 40850 ft 480 kts 134°
2026-04-26 17:22 3.77783 100.26627 40850 ft 481 kts 134°
2026-04-26 17:23 3.73108 100.31396 40844 ft 480 kts 134°
2026-04-26 17:23 3.68442 100.36154 40847 ft 480 kts 134°
2026-04-26 17:24 3.63761 100.40928 40837 ft 480 kts 134°
2026-04-26 17:24 3.59104 100.45675 40846 ft 480 kts 134°
2026-04-26 17:25 3.54417 100.50454 40850 ft 480 kts 134°
2026-04-26 17:25 3.49871 100.55295 40851 ft 480 kts 128°
2026-04-26 17:26 3.45754 100.60595 40844 ft 479 kts 127°
2026-04-26 17:26 3.41758 100.65916 40845 ft 479 kts 127°
2026-04-26 17:27 3.37772 100.71247 40847 ft 479 kts 127°
2026-04-26 17:27 3.33767 100.76588 40842 ft 479 kts 127°
2026-04-26 17:28 3.29773 100.81904 40847 ft 478 kts 127°
2026-04-26 17:28 3.25750 100.87253 40845 ft 479 kts 127°
2026-04-26 17:29 3.23091 100.90788 40845 ft 479 kts 127°
2026-04-26 17:29 3.17750 100.97889 40851 ft 478 kts 127°
2026-04-26 17:30 3.13762 101.03192 40849 ft 479 kts 127°
2026-04-26 17:30 3.09753 101.08521 40847 ft 479 kts 127°
2026-04-26 17:31 3.05769 101.13816 40846 ft 478 kts 127°
2026-04-26 17:31 3.01749 101.19158 40841 ft 480 kts 127°
2026-04-26 17:32 2.97750 101.24471 40839 ft 479 kts 127°
2026-04-26 17:32 2.93735 101.29805 40852 ft 480 kts 126°
2026-04-26 17:33 2.89720 101.35148 40847 ft 481 kts 127°
2026-04-26 17:34 2.83690 101.43149 40842 ft 480 kts 127°
2026-04-26 17:34 2.79683 101.48463 40849 ft 480 kts 127°
2026-04-26 17:35 2.75649 101.53816 40847 ft 480 kts 127°
2026-04-26 17:35 2.71637 101.59140 40856 ft 480 kts 127°
2026-04-26 17:36 2.67636 101.64449 40858 ft 480 kts 127°
2026-04-26 17:36 2.63603 101.69800 40856 ft 481 kts 127°
2026-04-26 17:37 2.59579 101.75138 40849 ft 480 kts 127°
2026-04-26 17:37 2.55572 101.80453 40846 ft 479 kts 127°
2026-04-26 17:38 2.49566 101.88433 40847 ft 478 kts 127°
2026-04-26 17:38 2.45579 101.93724 40848 ft 478 kts 127°
2026-04-26 17:39 2.42231 101.98167 40847 ft 479 kts 127°
2026-04-26 17:39 2.38228 102.03480 40845 ft 479 kts 127°
2026-04-26 17:40 2.34885 102.07919 40854 ft 480 kts 127°
2026-04-26 17:40 2.30186 102.14156 40852 ft 483 kts 127°
2026-04-26 17:41 2.26156 102.19504 40885 ft 483 kts 127°
2026-04-26 17:41 2.22101 102.24885 40882 ft 483 kts 126°
2026-04-26 17:42 2.18077 102.30225 40885 ft 483 kts 126°
2026-04-26 17:42 2.14042 102.35579 40879 ft 483 kts 126°
2026-04-26 17:43 2.10011 102.40927 40861 ft 482 kts 126°
2026-04-26 17:43 2.07979 102.43623 40742 ft 481 kts 126°
2026-04-26 17:43 2.05972 102.46285 40066 ft 481 kts 126°
2026-04-26 17:44 2.03953 102.48964 39217 ft 486 kts 126°
2026-04-26 17:44 2.01916 102.51667 38385 ft 490 kts 126°
2026-04-26 17:44 1.99866 102.54395 37535 ft 493 kts 126°
2026-04-26 17:44 1.97812 102.57124 36824 ft 492 kts 126°
2026-04-26 17:45 1.95746 102.59864 36125 ft 491 kts 126°
2026-04-26 17:45 1.93691 102.62590 35400 ft 491 kts 126°
2026-04-26 17:45 1.91631 102.65321 34654 ft 491 kts 126°
2026-04-26 17:45 1.89584 102.68038 33851 ft 493 kts 126°
2026-04-26 17:46 1.87528 102.70767 32937 ft 495 kts 126°
2026-04-26 17:46 1.85454 102.73520 32031 ft 496 kts 126°
2026-04-26 17:46 1.83364 102.76295 31121 ft 498 kts 126°
2026-04-26 17:46 1.81269 102.79076 30202 ft 500 kts 126°
2026-04-26 17:47 1.79178 102.81851 29143 ft 503 kts 126°
2026-04-26 17:47 1.77789 102.83694 28555 ft 502 kts 126°
2026-04-26 17:47 1.74999 102.87398 27661 ft 493 kts 126°
2026-04-26 17:47 1.73158 102.90260 26983 ft 486 kts 118°
2026-04-26 17:48 1.71524 102.93151 26309 ft 482 kts 117°
2026-04-26 17:48 1.69917 102.96106 25620 ft 477 kts 117°
2026-04-26 17:48 1.68378 102.98995 24964 ft 473 kts 116°
2026-04-26 17:48 1.66837 103.01911 24301 ft 469 kts 116°
2026-04-26 17:49 1.65322 103.04780 23646 ft 465 kts 116°
2026-04-26 17:49 1.63813 103.07613 22920 ft 462 kts 117°
2026-04-26 17:49 1.62001 103.10229 22234 ft 458 kts 129°
2026-04-26 17:49 1.59627 103.12361 21564 ft 456 kts 144°
2026-04-26 17:50 1.56821 103.13829 20903 ft 453 kts 155°
2026-04-26 17:50 1.53925 103.15013 20234 ft 449 kts 156°
2026-04-26 17:50 1.51041 103.16161 19571 ft 445 kts 156°
2026-04-26 17:50 1.48189 103.17295 18916 ft 441 kts 156°
2026-04-26 17:51 1.45372 103.18414 18712 ft 425 kts 156°
2026-04-26 17:51 1.42693 103.19478 18610 ft 407 kts 156°
2026-04-26 17:51 1.40100 103.20509 18471 ft 392 kts 156°
2026-04-26 17:51 1.37668 103.21475 18303 ft 363 kts 156°
2026-04-26 17:52 1.35399 103.22376 18148 ft 338 kts 156°
2026-04-26 17:52 1.33286 103.23217 17982 ft 319 kts 156°
2026-04-26 17:52 1.31259 103.24025 17822 ft 310 kts 155°
2026-04-26 17:52 1.29287 103.24812 17617 ft 304 kts 155°
2026-04-26 17:53 1.27323 103.25596 17228 ft 303 kts 155°
2026-04-26 17:53 1.25368 103.26389 16868 ft 303 kts 154°
2026-04-26 17:53 1.23504 103.27352 16519 ft 300 kts 148°
2026-04-26 17:54 1.19932 103.29422 15884 ft 297 kts 147°
2026-04-26 17:54 1.18157 103.30452 15558 ft 295 kts 147°
2026-04-26 17:54 1.16383 103.31480 15232 ft 293 kts 147°
2026-04-26 17:54 1.14631 103.32495 14914 ft 292 kts 147°
2026-04-26 17:55 1.12869 103.33515 14595 ft 290 kts 147°
2026-04-26 17:55 1.11125 103.34524 14274 ft 289 kts 147°
2026-04-26 17:55 1.09397 103.35523 13959 ft 287 kts 147°
2026-04-26 17:55 1.07679 103.36517 13672 ft 284 kts 147°
2026-04-26 17:56 1.06003 103.37485 13528 ft 273 kts 147°
2026-04-26 17:56 1.02836 103.39315 13286 ft 254 kts 147°
2026-04-26 17:57 0.99820 103.41063 12765 ft 250 kts 147°
2026-04-26 17:57 0.98440 103.42087 12561 ft 241 kts 130°
2026-04-26 17:57 0.97598 103.43473 12386 ft 234 kts 106°
2026-04-26 17:57 0.97315 103.45076 12153 ft 234 kts 94°
2026-04-26 17:58 0.96964 103.49944 11413 ft 233 kts 94°
2026-04-26 17:59 0.96715 103.53160 10926 ft 232 kts 94°
2026-04-26 17:59 0.96589 103.54764 10684 ft 232 kts 94°
2026-04-26 17:59 0.96470 103.56366 10441 ft 231 kts 92°
2026-04-26 17:59 0.96548 103.57961 10187 ft 230 kts 82°
2026-04-26 18:00 0.96764 103.59540 9936 ft 230 kts 81°
2026-04-26 18:00 0.96998 103.61169 9757 ft 244 kts 81°
2026-04-26 18:00 0.97241 103.62879 9679 ft 246 kts 81°
2026-04-26 18:00 0.97472 103.64529 9232 ft 240 kts 81°
2026-04-26 18:01 0.97706 103.66195 8873 ft 245 kts 82°
2026-04-26 18:01 0.97945 103.67906 8591 ft 246 kts 82°
2026-04-26 18:01 0.98180 103.69595 8314 ft 246 kts 81°
2026-04-26 18:01 0.98511 103.71259 8043 ft 244 kts 71°
2026-04-26 18:02 0.99335 103.72733 7783 ft 243 kts 54°
2026-04-26 18:02 1.00005 103.73622 7604 ft 243 kts 53°
2026-04-26 18:02 1.01381 103.75407 7248 ft 243 kts 53°
2026-04-26 18:02 1.02399 103.76741 6995 ft 242 kts 53°
2026-04-26 18:03 1.03428 103.78094 6713 ft 241 kts 53°
2026-04-26 18:03 1.04432 103.79417 6459 ft 240 kts 53°
2026-04-26 18:03 1.05439 103.80747 6192 ft 239 kts 53°
2026-04-26 18:03 1.06434 103.82062 5926 ft 238 kts 53°
2026-04-26 18:04 1.07432 103.83381 5676 ft 238 kts 53°
2026-04-26 18:04 1.08430 103.84701 5416 ft 237 kts 53°
2026-04-26 18:04 1.09426 103.86018 5137 ft 236 kts 53°
2026-04-26 18:05 1.11975 103.88012 4629 ft 236 kts 25°
2026-04-26 18:05 1.13477 103.88657 4372 ft 235 kts 24°
2026-04-26 18:05 1.14955 103.89280 4103 ft 231 kts 24°
2026-04-26 18:05 1.16428 103.89909 3814 ft 228 kts 24°
2026-04-26 18:06 1.17877 103.90526 3512 ft 226 kts 24°
2026-04-26 18:06 1.19317 103.91136 3232 ft 223 kts 24°
2026-04-26 18:06 1.20708 103.91727 2948 ft 212 kts 24°
2026-04-26 18:06 1.22016 103.92282 2709 ft 197 kts 24°
2026-04-26 18:07 1.23232 103.92798 2465 ft 182 kts 24°
2026-04-26 18:07 1.24378 103.93284 2221 ft 176 kts 24°
2026-04-26 18:07 1.25464 103.93745 2012 ft 164 kts 23°
2026-04-26 18:07 1.26159 103.94040 1853 ft 158 kts 24°
2026-04-26 18:08 1.27455 103.94590 1611 ft 149 kts 23°
2026-04-26 18:08 1.28386 103.94985 1379 ft 140 kts 23°
2026-04-26 18:08 1.29259 103.95355 1222 ft 134 kts 23°
2026-04-26 18:08 1.30113 103.95720 1038 ft 136 kts 21°
2026-04-26 18:09 1.30999 103.96077 870 ft 136 kts 22°
2026-04-26 18:09 1.31853 103.96472 726 ft 136 kts 18°
2026-04-26 18:09 1.32736 103.96831 570 ft 138 kts 19°
2026-04-26 18:09 1.33626 103.97212 357 ft 141 kts 20°
2026-04-26 18:10 1.34515 103.97587 169 ft 138 kts 20°
2026-04-26 18:10 1.35388 103.97954 49 ft 130 kts 19°
2026-04-26 18:10 1.36160 103.98276 34 ft 105 kts 26°
2026-04-26 18:10 1.36574 103.98460 37 ft 35 kts 32°
2026-04-26 18:11 1.36726 103.98595 35 ft 21 kts 53°
2026-04-26 18:11 1.36728 103.98669 33 ft 10 kts 128°
2026-04-26 18:11 1.36668 103.98687 32 ft 8 kts 190°
2026-04-26 18:11 1.36614 103.98665 33 ft 10 kts 203°
2026-04-26 18:12 1.36544 103.98635 33 ft 12 kts 203°
2026-04-26 18:12 1.36500 103.98617 33 ft 0 kts 203°
2026-04-26 18:14 1.36449 103.98595 33 ft 16 kts 203°
2026-04-26 18:14 1.36335 103.98547 33 ft 19 kts 202°
2026-04-26 18:14 1.36206 103.98492 33 ft 21 kts 203°
2026-04-26 18:14 1.36140 103.98474 33 ft 2 kts 170°
2026-04-26 18:15 1.36099 103.98524 32 ft 13 kts 120°
2026-04-26 18:15 1.36078 103.98613 31 ft 12 kts 79°
2026-04-26 18:15 1.36062 103.98686 31 ft 10 kts 114°
2026-04-26 18:15 1.36044 103.98727 31 ft 0 kts 115°